Showing default

GLOBAL-12, 49772

Orbit data source: Space-Track

GLOBAL-12, 49772 is a payload satellite owned by BlackSky Global (US) in LEO that was launched on Thu, 02 Dec 2021 UTC via an FALCON 9 launch vehicle from the Air Force Eastern Test Range (AFETR). Payload-class satellites include a variety of spacecraft equipped with specific instruments for various scientific and technological missions. These include communications satellites like Starlink; space stations such as the ISS; scientific satellites like the Hubble; Earth observation satellites from companies like Planet Labs, Umbra, and HawkEye 360; GPS; miniature CubeSats for education and research; and military/defense satellites.

Loading next visibility...
Identifier
49772, 2021-115BA
Orbit
LEO
Country
Flag of USUS
Related business
Manufacturer
LeoStella
Mission
Operational Commercial Imaging
Bus & Motor
BSKY, Unknown motor
Mass
55 kg wet, ~50 kg dry
Launch date (UTC)
2021-12-02 (5 years ago)
Launch vehicle
FALCON 9
Launch site
Air Force Eastern Test Range (AFETR)
Object type
Payload
Rocket body
Debris
Shape & HBR
Box, 1.0 m
Radar Cross Section
0.625 m², Medium (>0.1 m² and < 1m²)

Expand to show TLE details & history
Last TLE update: 2 days ago

TLE from 2 days ago
0 GLOBAL-12
1 49772U 21115BA  26171.22555003  .00029160  00000-0  45261-3 0  9997
2 49772  53.1956  29.9295 0002937  73.2313 286.9020 15.53764185256371
Epoch: 2026-06-20T05:24Z
TLE epoch observation values (Epoch: 2026-06-20T05:24:47.522Z)
Latitude
-0.00007°
Longitude
40.28821°
Altitude
406.081 km
Speed
7.669 km/s
True Right ascension
01h 59m 43s
True Declination
0° 00' 00"
Sunlit
Object was in daylight at epoch
Visualization orbit readout
Latitude
Unknown
Longitude
Unknown
Altitude
Unknown
Speed
Unknown
Apparent Right ascension
Unknown
Apparent Declination
Unknown
Sunlit
N/A
Visualization observer readout
Local Sidereal Time
23:07:31
Azimuth
Unknown
Elevation
Unknown
Doppler factor
Unknown
Orbital elements
Apogee altitude
407.993 km
Perigee altitude
404.008 km
Semi-major axis
6,784.138 km
Eccentricity
0.00029
Inclination
53.1956°
RAAN
29.9295°
Arg. of periapsis
73.2313°
True anomaly
286.86979°
Mean anomaly
286.902°
Eccentric anomaly
286.8859°
Mean motion
3.8842 °/min
Orbital period
92.68 mins
BSTAR
0.00045261
Loading maneuver chart data...
Computing Atmospheric mass density...

Documentation

Showing up to 5 results
|